Flag for U.S.A. Weather past 2 weeks in Pittsburgh, Pennsylvania, U.S.A.

Now
61 °F

Clear.


Feels Like: 61 °F
Forecast: 59 / 79 °F
Wind: 8 mph from South

Location: Allegheny County Airport

Current Time: Sep 20, 2014 at 12:41:24 AM

Latest Report: Sep 19, 2014 at 11:53 PM


Visibility: 10 mi

Pressure: 30.16 "Hg

Humidity: 72%

Dew point: 52 °F

Location of PittsburghLocation

Historic Weather in Pittsburgh — Graph

°F

Pittsburgh temperature yesterday

Maximum temperature yesterday: 72 °F (at 4:53 PM)
Minimum temperature yesterday: 50 °F (at 5:53 AM)
Average temperature yesterday: 61 °F

Past Weeks' High & Low Weather Summary

 TemperatureHumidityPressure
High85 °F (Sep 5, 2:53 PM)97% (Sep 14, 7:53 AM)30.36 "Hg (Sep 14, 7:53 AM)
Low45 °F (Sep 14, 6:53 AM)37% (Sep 18, 2:53 PM)29.77 "Hg (Sep 11, 4:53 AM)
Average63 °F70%30.11 "Hg
* Reported Sep 4 10:53 PM — Sep 19 10:53 PM, Pittsburgh, Weather by CustomWeather, © 2014

Note: Actual official high and low records may vary slightly from our data, if they occured in-between our weather recording intervals... More about our weather records

Advertising

Pittsburgh weather history for previous 24 hours

 ConditionsComfort  
Time TempWeatherWind HumidityBarometerVisibility
10:53 PM
Sep 19
62 °FClear.10 mph70%30.16 "Hg10 mi
9:53 PM63 °FClear.10 mph68%30.17 "Hg10 mi
8:53 PM64 °FClear.10 mph65%30.18 "Hg9 mi
7:53 PM66 °FScattered clouds.10 mph61%30.17 "Hg10 mi
6:53 PM68 °FPartly sunny.9 mph59%30.17 "Hg10 mi
5:53 PM71 °FMostly cloudy.6 mph53%30.15 "Hg10 mi
4:53 PM72 °FBroken clouds.7 mph52%30.15 "Hg10 mi
3:53 PM71 °FScattered clouds.7 mph51%30.17 "Hg10 mi
2:53 PM71 °FScattered clouds.9 mph49%30.18 "Hg10 mi
1:53 PM70 °FSunny.5 mph47%30.20 "Hg10 mi
12:53 PM68 °FSunny.8 mph51%30.22 "Hg10 mi
11:53 AM66 °FSunny.8 mph54%30.22 "Hg10 mi
10:53 AM62 °FSunny.5 mph62%30.24 "Hg10 mi
9:53 AM57 °FSunny.6 mph72%30.24 "Hg10 mi
8:53 AM53 °FSunny.3 mph80%30.24 "Hg8 mi
7:53 AM50 °FClear.3 mph86%30.23 "Hg7 mi
6:53 AM50 °FClear.5 mph86%30.22 "Hg7 mi
5:53 AM50 °FClear.3 mph86%30.21 "Hg7 mi
4:53 AM51 °FClear.3 mph86%30.20 "Hg8 mi
3:53 AM52 °FClear.5 mph83%30.19 "Hg9 mi
2:53 AM52 °FClear.3 mph83%30.19 "Hg10 mi
1:53 AM53 °FClear.5 mph80%30.19 "Hg10 mi
12:53 AM54 °FClear.3 mph80%30.18 "Hg10 mi
Weather by CustomWeather, © 2014

See weather overviewHow to use our weather pages